Location: Newark
(42.8200°N, 13.1900°E)
Time: 00:25:40
(UTC+00:00)

STARLINK-1293 - Pass Details

Date: 07 April 2020
Orbit: 379 x 380 km, 53.0° (Epoch: 05 June)

Event Time Altitude Azimuth Distance (km) Brightness Sun altitude
Exits shadow 01:47:47 11° 20° (NNE) 1,297 6.3 -28.6°
Drops below altitude 10° 01:48:08 10° 25° (NNE) 1,377 6.5 -28.6°
Sets 01:50:50 0° 51° (NE) 2,233 8.0 -28.2°
